Weather History for KMHT - September, 2013

Change the Weather History Date:

Saturday, September 21, 2013

  Actual Average Record
Temperature  
Mean Temperature 63 °F -  
Max Temperature 75 °F 71 °F 92 °F (1983)
Min Temperature 51 °F 46 °F 28 °F (1956)
Degree Days  
Heating Degree Days 2    
Growing Degree Days 13 (Base 50)    
Moisture  
Dew Point 56 °F    
Average Humidity 84    
Maximum Humidity 100    
Minimum Humidity 55    
Precipitation  
Precipitation 0.01 in - - ()
Sea Level Pressure  
Sea Level Pressure 29.92 in    
Wind  
Wind Speed 5 mph (South)    
Max Wind Speed 16 mph    
Max Gust Speed 24 mph    
Visibility 7 miles    
Events Fog    
Averages and records for this station are not official NWS values.
T = Trace of Precipitation, MM = Missing Value Source: NWS Daily Summary

Daily Weather History Graph

Daily Weather History Graph

Search for Another Location

Airport or City:

Trip Planner

Search our weather history database for the weather conditions in past years. The results will help you decide how hot, cold, wet, or windy it might be!

Date:

Astronomy

Sep. 21, 2013 Rise Set
Actual Time 6:32 AM EDT 6:44 PM EDT
Civil Twilight 6:03 AM EDT 7:12 PM EDT
Nautical Twilight 5:30 AM EDT 7:45 PM EDT
Astronomical Twilight 4:56 AM EDT 8:19 PM EDT
Moon 7:48 PM EDT (9/21) 8:51 AM EDT (9/21)
Length of Visible Light 13h 08m
Length of Day
12h 12m
Waning Gibbous, 94% of the Moon is Illuminated
Sep 21
Waning Gibbous
Sep 26
Last Quarter
Oct 4
New
Oct 11
First Quarter
Oct 18
Full

Hourly Weather History & Observations

Time (EDT) Temp. Dew Point Humidity Pressure Visibility Wind Dir Wind Speed Gust Speed Precip Events Conditions
12:53 AM 57.0 °F 54.0 °F 89% 30.04 in 10.0 mi Calm Calm - N/A   Clear
1:53 AM 55.9 °F 54.0 °F 93% 30.04 in 9.0 mi Calm Calm - N/A   Clear
2:53 AM 53.1 °F 51.1 °F 93% 30.02 in 10.0 mi Calm Calm - N/A   Clear
3:39 AM 51.8 °F 51.8 °F 100% 29.99 in 2.5 mi Calm Calm - N/A   Partly Cloudy
3:48 AM 51.8 °F 51.8 °F 100% 29.99 in 1.8 mi Calm Calm - N/A   Mostly Cloudy
3:53 AM 52.0 °F 51.1 °F 97% 30.03 in 3.0 mi Calm Calm - N/A   Partly Cloudy
4:53 AM 53.1 °F 52.0 °F 96% 30.02 in 5.0 mi Calm Calm - N/A   Partly Cloudy
5:53 AM 54.0 °F 52.0 °F 93% 30.01 in 7.0 mi SW 3.5 mph - N/A   Clear
6:53 AM 53.1 °F 51.1 °F 93% 30.01 in 6.0 mi WSW 4.6 mph - N/A   Clear
7:04 AM 53.6 °F 51.8 °F 94% 29.97 in 0.5 mi SSW 4.6 mph - N/A   Scattered Clouds
7:13 AM 53.6 °F 51.8 °F 94% 29.98 in 0.5 mi SSW 4.6 mph - N/A   Mostly Cloudy
7:29 AM 53.6 °F 53.6 °F 100% 29.98 in 0.2 mi SSW 6.9 mph - N/A Fog Fog
7:36 AM 53.6 °F 53.6 °F 100% 29.98 in 0.2 mi SSW 5.8 mph - N/A Fog Fog
7:53 AM 53.1 °F 53.1 °F 100% 30.01 in 0.2 mi SSW 4.6 mph - N/A Fog Fog
8:08 AM 53.6 °F 53.6 °F 100% 29.98 in 0.2 mi SSW 4.6 mph - N/A Fog Fog
8:31 AM 53.6 °F 53.6 °F 100% 29.97 in 0.5 mi South 6.9 mph - N/A Fog Fog
8:53 AM 55.0 °F 55.0 °F 100% 30.01 in 0.5 mi South 9.2 mph - N/A Fog Fog
9:14 AM 57.2 °F 55.4 °F 94% 29.97 in 2.0 mi South 6.9 mph - N/A   Overcast
9:22 AM 57.2 °F 55.4 °F 94% 29.96 in 6.0 mi Variable 6.9 mph - N/A   Overcast
9:53 AM 59.0 °F 57.0 °F 93% 29.99 in 10.0 mi South 8.1 mph - N/A   Overcast
10:09 AM 60.8 °F 57.2 °F 88% 29.95 in 10.0 mi South 4.6 mph - N/A   Overcast
10:32 AM 64.4 °F 57.2 °F 77% 29.93 in 10.0 mi South 9.2 mph - N/A   Overcast
10:53 AM 64.9 °F 55.9 °F 73% 29.96 in 10.0 mi South 12.7 mph 20.7 mph 0.01 in   Mostly Cloudy
11:08 AM 66.2 °F 55.4 °F 68% 29.91 in 10.0 mi South 11.5 mph 20.7 mph N/A   Scattered Clouds
11:53 AM 71.1 °F 54.0 °F 55% 29.93 in 10.0 mi South 13.8 mph - N/A   Clear
12:53 PM 73.0 °F 57.0 °F 57% 29.90 in 10.0 mi SSW 15.0 mph 20.7 mph N/A   Mostly Cloudy
1:53 PM 75.0 °F 57.9 °F 55% 29.88 in 10.0 mi South 10.4 mph 24.2 mph N/A   Mostly Cloudy
2:53 PM 75.0 °F 59.0 °F 57% 29.85 in 10.0 mi South 12.7 mph 21.9 mph N/A   Mostly Cloudy
3:53 PM 73.0 °F 61.0 °F 66% 29.83 in 10.0 mi South 16.1 mph 21.9 mph N/A   Mostly Cloudy
4:53 PM 73.9 °F 61.0 °F 64% 29.81 in 10.0 mi South 9.2 mph - N/A   Mostly Cloudy
5:53 PM 73.0 °F 57.9 °F 59% 29.81 in 10.0 mi South 12.7 mph - N/A   Mostly Cloudy
6:53 PM 71.1 °F 57.9 °F 63% 29.80 in 10.0 mi South 11.5 mph - N/A   Scattered Clouds
7:53 PM 69.1 °F 60.1 °F 73% 29.80 in 10.0 mi SSE 11.5 mph - N/A   Partly Cloudy
8:53 PM 68.0 °F 62.1 °F 81% 29.80 in 10.0 mi SSE 9.2 mph - N/A   Partly Cloudy
9:53 PM 68.0 °F 63.0 °F 84% 29.77 in 10.0 mi SSE 9.2 mph - N/A   Mostly Cloudy
10:40 PM 69.8 °F 62.6 °F 78% 29.73 in 10.0 mi South 10.4 mph 20.7 mph N/A   Overcast
10:53 PM 69.1 °F 63.0 °F 81% 29.76 in 10.0 mi South 12.7 mph 20.7 mph N/A   Overcast
11:53 PM 69.1 °F 64.0 °F 84% 29.73 in 10.0 mi South 9.2 mph - N/A   Mostly Cloudy